Regional Weather Roundup
Issued by NWS Memphis, TN

Home | Current Version | Previous Version | Text Only | Print | Product List | Glossary On
Versions: 1 2 3 4 5 6 7 8 9 10 11 12 13 14 15 16 17 18 19 20 21 22 23 24 25 26 27 28 29 30 31 32 33 34 35 36 37 38 39 40 41 42 43 44 45 46 47 48 49 50
000
ASUS44 KMEG 221300
RWRMEG
MEMPHIS CWA HOURLY WEATHER ROUNDUP
NATIONAL WEATHER SERVICE MEMPHIS TN
800 AM CDT SUN OCT 22 2017

...WEST TENNESSEE...

CITY           SKY/WX    TMP DP  RH WIND       PRES   REMARKS
MEMPHIS INTL   PTCLDY    68  64  87 S13       29.99R
NWS MEMPHIS      N/A     68 N/A N/A MISG        N/A
JACKSON        MOCLDY    68  62  81 S13G21    30.03F
DYERSBURG        N/A     68  62  81 SE12      30.02R


...EASTERN ARKANSAS...

CITY           SKY/WX    TMP DP  RH WIND       PRES   REMARKS
JONESBORO      LGT RAIN  62  61  96 CALM      30.00R
WEST MEMPHIS   CLOUDY    70  66  87 S17       29.98R
BATESVILLE     LGT RAIN  60  59  96 E6        29.98F
NEWPORT        LGT RAIN  60  59  96 SW6       30.02R
WALNUT RIDGE   LGT RAIN  60  59  96 S3        29.98F
BLYTHEVILLE    CLOUDY    70  64  81 S14G22    29.98S
SEARCY         LGT RAIN  61  61 100 MISG        N/A
STUTTGART      LGT RAIN  61  59  93 W3        30.04S
PINE BLUFF     CLOUDY    60  59  96 SW10      30.04S
MONTICELLO     LGT RAIN  61  58  90 W5        30.06R


...NORTH MISSISSIPPI...

CITY           SKY/WX    TMP DP  RH WIND       PRES   REMARKS
TUPELO         PTCLDY    68  60  75 SE13G23   30.07S
OLIVE BRANCH   MOCLDY   N/A N/A N/A S9G21     29.98F
TUNICA           N/A    N/A N/A N/A SE13      30.00R
CLARKSDALE       N/A     72  68  88 SE10      29.98S
GREENWOOD      CLOUDY    73  65  75 SE10      30.00F
COLUMBUS       CLOUDY    67  63  87 SE12      30.08F
STARKVILLE     CLOUDY    64  61  88 SE7       30.09F
GOLDEN TRIANGL CLOUDY    67  63  87 E13       30.09F


...SOUTHEAST MISSOURI...

CITY           SKY/WX    TMP DP  RH WIND       PRES   REMARKS
MALDEN         DRIZZLE   68  63  83 S10       29.99R
WEST PLAINS    CLOUDY    59  57  93 CALM      29.97S
POPLAR BLUFF   CLOUDY    64  62  93 S7        29.95R
CAPE GIRARDEAU PTCLDY    67  62  84 SE17G26   29.97R


...NORTHWEST ALABAMA...

CITY           SKY/WX    TMP DP  RH WIND       PRES   REMARKS
MUSCLE SHOALS  MOSUNNY   64  58  80 SE8       30.15S


...MIDDLE TENNESSEE...

CITY           SKY/WX    TMP DP  RH WIND       PRES   REMARKS
NASHVILLE      PTSUNNY   65  55  70 SE12      30.15R
CLARKSVILLE    CLOUDY    64  55  72 S8        30.11R


...WESTERN KENTUCKY...

CITY           SKY/WX    TMP DP  RH WIND       PRES   REMARKS
PADUCAH        LGT RAIN  65  60  84 S12       30.02R
FORT CAMPBELL  CLOUDY    64  55  72 SE7       30.10R


...CENTRAL ARKANSAS...

CITY           SKY/WX    TMP DP  RH WIND       PRES   REMARKS
LITTLE ROCK    LGT RAIN  59  59 100 SW3       30.02F


SKY/WX REPORTED AS FAIR MEANS FEW OR NO CLOUDS BELOW
12 THOUSAND FEET.





USA.gov is the U.S. government's official web portal to all federal, state and local government web resources and services.